Weather in Kalininskaya

Russia / Krasnodar Krai     45°29′08″N   38°39′42″E
temp.,
°C
wind,
m/s
gust,
m/s
humid.,
%
clouds,
%
prec.,
mm/h
press.,
hPa
HPBL,
m
1 december, wed
wed100:00+12sw10167195 0.1 9941277
03:00+10ssw61180100 0.6 992902
06:00+4wnw91587100 0.5 10031109
09:00+6w81158100 0.6 10071553
12:00+7wsw711475 0.0 10091493
15:00+5ssw6888100 0.8 1008615
18:00+7wsw81471100 1.6 10061386
21:00+7wsw61171100 2.1 10081252
2 december, thu
thu200:00+5w511765 0.2 1009526
03:00+4sw368096 0.2 1012164
06:00+4wsw49795 0.1 1014420
09:00+4sw37796 0.1 1017302
12:00+7wsw57585 0.0 1017855
15:00+10sw49585 0.0 10171291
18:00+8ssw512725 0.0 1018378
21:00+8ssw5147133 0.0 1018484
3 december, fri
fri300:00+7ssw513730 0.0 1018362
03:00+7s498158 0.0 1018180
06:00+6sse51083100 0.0 1018242
09:00+6se4969100 0.0 1018202
12:00+10sse485475 0.0 1018372
15:00+12sse47535 0.0 1017414
18:00+9sse410682 0.0 1017184
21:00+8sse5116249 0.0 1017190
4 december, sat
sat400:00+8s41179100 0.0 1017224
03:00+8s41082100 0.0 1017174
06:00+8s4781100 0.0 1016112
09:00+8sse477721 0.0 1016123
12:00+13sse575195 0.0 1014251
15:00+13se3644100 0.0 1013189
18:00+10ese4752100 0.0 101294
21:00+9ese3658100 0.0 101198
5 december, sun
sun500:00+9se3456100 0.0 100960
03:00+9se4551100 0.0 100865
06:00+9sse41060100 0.0 1007192
09:00+10ssw2372100 0.0 100832
12:00+11sse41067100 0.2 1008293
15:00+11sse2372100 0.4 100880
18:00+10se4777100 0.1 1009129
21:00+9sse3768100 0.1 1010119